Safari Half Marathon 2014 - 10km Walk
Pos.Cat. Pos.No.SurnameNameSexCat.ClubTimeDiff.
1111413NELARMONDMaleOpenRWFLWP48:44-
2111243MCDONALDROSSMale40-49NBMCWP48:58+00:14
3211661RHODASENVORMaleOpenEAST50:41+01:57
4310990GROENEWALDFRANCOISMaleOpenTEMP51:58+03:14
5111272KOTZEINGEFemaleOpenMATIES55:14+06:30
629673LE ROUXNATALIEFemaleOpenTEMP55:30+06:46
7110905ROSSOUWNOELINEFemaleJuniorsWORC55:44+07:00
8411241THERONLORENZEMaleOpenNBMCWP56:23+07:39
9210181DU TOITHILDAFemaleJuniorsWORC56:42+07:58
1019892VAMZYLJOHANMale60+SANLAMC56:54+08:10
11511492HOUSTONCHARLTONMaleOpenTEMP1:00:19+11:35
12311658KRAUKAMPATHALIAFemaleOpenTEMP1:00:35+11:51
13211603PIPESSTIERMANMale40-49TEMP1:00:36+11:52
1439859MEYERDELIAFemaleJuniorsBOLAND1:00:42+11:58
15311500MGESESONWABOMale40-49TEMP1:01:00+12:16
16111954ORRIERIAZMaleJuniorsITHEKO1:02:35+13:51
17410136BURGERFRANCOISMale40-49TEMP1:02:52+14:08
18111547COOPERKENNETHMale50-59TEMP1:03:47+15:03
19511649BOBOTYANANICOMale40-49INFANTRY1:03:58+15:14
2049871DEWEEMARIAFemaleOpenCERES1:04:07+15:23
2119628HANSENAMANDAFemale40-49SAPSWP1:04:17+15:33
2219797BOOYSENCYNTHIAFemale50-59RCSGUGS1:04:31+15:47
2329787MOSTERTJACOMaleJuniorsTEMP1:04:54+16:10
24210918GOOSENJACQUELINEFemale50-59BRACKEN1:05:11+16:27
2559767NAUDENADIAFemaleOpenTEMP1:05:31+16:47
2669788DE VILLIERSALZANNEFemaleOpenTEMP1:05:32+16:48
27210094WALTERSESWEEMale50-59BELL1:05:49+17:05
28610992JACOBSFAIZELMaleOpenTEMP1:05:54+17:10
29310866FREDERICKSASHWINMaleJuniorsTEMP1:06:15+17:31
30411072HENDRICKSTASSWILLMaleJuniorsTEMP1:06:28+17:44
3139828CALLAGHANSOPHIAFemale50-59TEMP1:07:16+18:32
32710057VAN BREDASAADIQMaleOpenTEMP1:07:46+19:02
3329901VAN HEERDENTIEKIEMale60+AMSAC1:07:53+19:09
34110797BRANDEDNAFemale60+LBAAN1:07:53+19:09
35510062SWARTNICHOLASMaleJuniorsTEMP1:07:54+19:10
36411880MOHAMEDMISHKAHFemaleJuniorsCENTRAL1:07:59+19:15
37611144LANGENHOVENCLINTONMale40-49TEMP1:08:04+19:20
3859581COETZEHANLIEFemaleJuniorsTEMP1:08:09+19:25
39811786SMITHCHATLINMaleOpenTEMP1:08:40+19:56
40610084MULLERPAULMaleJuniorsTEMP1:09:17+20:33
41310658ADAMSTREVORMale50-59TEMP1:09:23+20:39
42711242THERONVANESSAMale40-49NBMCWP1:09:29+20:45
43711491LEGODITEBATSOFemaleOpenTEMP1:09:38+20:54
44811489SEKHUMARTMAFemaleOpenTEMP1:10:07+21:23
45211446JAFTACHARLOTTEFemale60+TELKWP1:10:13+21:29
46710701LAUSBERGCHRISMaleJuniorsNEDWP1:10:18+21:34
47910399JOSEPHHARONMaleOpenTEMP1:10:19+21:35
48810401ADAMSTYRIQUEMaleJuniorsTEMP1:10:19+21:35
4999743GOEBELJOFemaleOpenTEMP1:10:26+21:42
50210747DIEDERICKSMARTINAFemale40-49TEMP1:10:27+21:43
511011715PETERSENRUSHNAMaleOpenTEMP1:10:32+21:48
52811781FREDERICKSDERICKMale40-49TEMP1:11:02+22:18
53911963HERMONHENRYMale40-49TEMP1:11:06+22:22
541111964VISAGIESELVINMaleOpenTEMP1:11:07+22:23
551010384VAN DER BERGCARIENFemaleOpenBRACKEN1:11:08+22:24
56311568VAN DIEMELCLEMENTMale60+CPUT1:11:15+22:31
571211147CARELSEDENZILMaleOpenTEMP1:11:20+22:36
58139611MINTOORALTONMaleOpenTEMP1:11:31+22:47
591410174ABRAHAMSJEROMEMaleOpenBOLAND1:11:49+23:05
6039992MEINTJESTHERESAFemale40-49NBMCEDEN1:11:51+23:07
61311161THEYSSIDNIAFemale60+TYGER1:11:57+23:13
62159811VOGTBRENDANMaleOpenTEMP1:12:04+23:20
63119763BOONZAAIERDELENEFemaleOpenTEMP1:12:05+23:21
64910144FIETIESCALVINMaleJuniorsTEMP1:12:13+23:29
65129672BRAAKLIZANNEFemaleOpenTEMP1:12:13+23:29
661610221GQWABAZASIMTHEMBILEMaleOpenTEMP1:12:18+23:34
67410198JAFTHAEDMUNDMale50-59TEMP1:12:19+23:35
6849554LOUBSERELZAFemale40-49TEMP1:12:20+23:36
69179729JACOBSDENZILMaleOpenTEMP1:12:22+23:38
701811346PIENAARJOHANNESMaleOpenTEMP1:12:24+23:40
71411667VOLMINKJOHNNYMale60+TEMP1:12:28+23:44
721011490CHARLESNEVILLEMale40-49TEMP1:12:29+23:45
731110215CAROLISSENOZANAMMale40-49TEMP1:12:32+23:48
74511705THYSSENVERNONMale50-59ATLHAR1:12:38+23:54
75139521FRYLINCK-STEYNCHRISTIENFemaleOpenTEMP1:12:38+23:54
76510249DOUGLASEMMYFemale40-49TEMP1:12:39+23:55
77129623CAROLISSENCHESLINMale40-49TEMP1:12:40+23:56
78199646ABRAHAMSJASONMaleOpenTEMP1:12:49+24:05
792011221BEZIEKJAMESMaleOpenTEMP1:12:52+24:08
80410265MARANGMATHILDAFemale50-59TEMP1:12:53+24:09
81610162VAN WYKJESTINEFemale40-49TEMP1:12:54+24:10
82710737ESTERHUIZENMARIYKEFemale40-49TEMP1:13:03+24:19
83510735BARNARDHENNIEMale60+TEMP1:13:03+24:19
84810258DE SWARDTHEIDIFemale40-49TEMP1:13:13+24:29
85611314WILLIAMSBARENDMale50-59TEMP1:13:16+24:32
862110748MAGNUSNEILMaleOpenTEMP1:13:16+24:32
872211765CLOETEROBERTMaleOpenTEMP1:13:16+24:32
88411331MCLAREWCHARMAINEFemale60+TEMP1:13:17+24:33
89910242KRITZINGERMARIANAFemale40-49RWFLWP1:13:26+24:42
901410821BRUCEJAMIE-LEIGHFemaleOpenTEMP1:13:27+24:43
911310241KRITZINGERWILHELMMale40-49RWFLWP1:13:27+24:43
92109703LIEBENBERGKARIENFemale40-49TEMP1:13:28+24:44
931510027CACADUMERCYFemaleOpenTEMP1:13:30+24:46
941610731MAGNUSANZELFemaleOpenTEMP1:13:32+24:48
951010697HARTNICKJAENDRIMaleJuniorsWORC1:13:42+24:58
962311863WILLIAMSDENZILMaleOpenTEMP1:13:46+25:02
972410703SHABANGUFANNIEMaleOpenEDGE1:13:48+25:04
981410676LOTZTROYMale40-49TEMP1:13:50+25:06
99259742GREBEGRAHAMMaleOpenTEMP1:13:50+25:06
100179899DU TOITNAOMIFemaleOpenTEMP1:13:51+25:07
10159674DU TOITELNAFemale50-59NEDBOL1:13:52+25:08
102189885JORDAANLAURENFemaleOpenTEMP1:13:53+25:09
1031111343BRAINERSELSESBETHFemale40-49TEMP1:13:54+25:10
104511348ADONISJULIEFemale60+TEMP1:13:55+25:11
105199775DE BRUYNALISJAFemaleOpenTEMP1:14:02+25:18
1062611709VAN NIEKERKABRIEMaleOpenTEMP1:14:02+25:18
107611710VAN NIEKERKALTHEAFemale50-59TEMP1:14:03+25:19
108279822BOOISENHILTONMaleOpenTEMP1:14:14+25:30
1092811387STOFFELSISAACMaleOpenTEMP1:14:20+25:36
1101211685PAPIERNICOLLEFemale40-49HOPLEY1:14:31+25:47
111710270IDASWELMAFemale50-59TEMP1:14:31+25:47
1121510017DIEDERICKSWILFREDMale40-49TEMP1:14:33+25:49
1131110422BEZUIDENHOUTLUKEMaleJuniorsTEMP1:14:33+25:49
114611448PENTZPETROFemale60+TEMP1:14:34+25:50
1151311257HENDRICKSWILMAFemale40-49TEMP1:14:35+25:51
1161610593FELIXMITCHELLMale40-49TEMP1:14:36+25:52
117611408LAMPRECHTADAMMale60+TEMP1:14:37+25:53
1182911540ISAACBEVANMaleOpenTEMP1:14:38+25:54
11979796FEINAUERTOMMIEMale50-59TEMP1:14:42+25:58
1201410849MALANCORNEFemale40-49TEMP1:14:43+25:59
121711629WESTFALLSANDRAFemale60+SPARTAN1:14:44+26:00
122129877HANSENDAMIANEMaleJuniorsSAPSWP1:14:45+26:01
123209567ADONISRUEFemaleOpenNBMCWP1:14:45+26:01
124811253MALANFLORISMale50-59TEMP1:14:48+26:04
125811225DOMINGOCECILIAFemale50-59TEMP1:14:52+26:08
1263010805MANUELJODIMaleOpenTEMP1:14:54+26:10
1273110804WOLFAARDTKEAGANMaleOpenTEMP1:14:54+26:10
1283211340HENKEMANLLEWELLYNMaleOpenTEMP1:15:07+26:23
1293311663WINGROVEANGELOMaleOpenTEMP1:15:28+26:44
1301711819GOLIATHIVANMale40-49TEMP1:15:34+26:50
131910901DE VILLIERSWILDREMale50-59TEMP1:15:36+26:52
1321810284MAJIEDTCHRISTOPHERMale40-49RWFLWP1:15:38+26:54
133910772ONTONGALETTAFemale50-59TEMP1:15:40+26:56
1341011640KAROLUSELSIEFemale50-59TEMP1:15:46+27:02
1351511245ROSELIZELLEFemale40-49TEMP1:15:47+27:03
1361011230GLOVERNEVILLEMale50-59TEMP1:15:51+27:07
137199785MOSTERTTHEUNISMale40-49TEMP1:15:52+27:08
138169794MOSTERTSANDRAFemale40-49TEMP1:15:53+27:09
1391110611AUSTONWILLEMMale50-59EERSTE1:15:58+27:14
140610557KNOETZETHANELFemaleJuniorsTEMP1:15:59+27:15
141219731FOURIEMICHELLEFemaleOpenTEMP1:16:01+27:17
142119963PARSONSINGRIDFemale50-59TEMP1:16:07+27:23
1431211533MARAISDEZOMale50-59BRACKEN1:16:14+27:30
1441710791BOTHARUTHFemale40-49TEMP1:16:15+27:31
1452210254HANEKOMCHANELLEFemaleOpenTEMP1:16:15+27:31
146711276KLAANSENSHANNONFemaleJuniorsTEMP1:16:16+27:32
147810257BOCKLEONORAFemale60+TEMP1:16:17+27:33
1482011798DE VRIESDENVORMale40-49TEMP1:16:23+27:39
149129770CLAASSENANNETJIEFemale50-59SANLAMC1:16:26+27:42
150811424BINGLETONNELLFemaleJuniorsWORC1:16:30+27:46
1512310056OLCKERSGERDAFemaleOpenTEMP1:16:30+27:46
152249709LE ROUXWILLENEFemaleOpenTEMP1:16:30+27:46
153139998STIPPSJAYD-LEIGHMaleJuniorsTEMP1:16:33+27:49
1542510525VISSERMONIQUEFemaleOpenTEMP1:16:43+27:59
1551311070PETERSENDESIREEFemale50-59TEMP1:16:44+28:00
156189778NOEMDO-JEFTHAALTHEAFemale40-49SAPSWP1:16:44+28:00
157349777COGILLROGERMaleOpenSAPSWP1:16:45+28:01
1582610532ISAACSRUSHDAHFemaleOpenTEMP1:16:45+28:01
159149783VAN ZYLTHALENAFemale50-59SANLAMC1:16:46+28:02
160219826LEIBRANDTJOHNMale40-49DRAKENS1:16:47+28:03
1612211493SNYMANJONAYHANMale40-49TEMP1:16:48+28:04
1621311217PETERSPETRUSMale50-59TEMP1:16:50+28:06
163159781ANDREWSCHARLENEFemale50-59ATLHAR1:17:00+28:16
1642711330SAMUELSSHIREENFemaleOpenTEMP1:17:01+28:17
1651611329SOLOMONSIRENEFemale50-59TEMP1:17:02+28:18
166179637BESTERSANDRAFemale50-59TEMP1:17:02+28:18
167289636VAN WYKDANIELLEFemaleOpenTEMP1:17:03+28:19
1682911762SAMBOKNICOLENEFemaleOpenTEMP1:17:13+28:29
1691810424GROENEWALDTALANAFemale50-59TEMP1:17:13+28:29
170309865VISAGIEMARESEFemaleOpenTEMP1:17:15+28:31
1711911619DANIELSJASMINEFemale40-49TEMP1:17:17+28:33
1723110520ELIZABETHJOUBERTFemaleOpenTEMP1:17:18+28:34
1732310000WILLEMSEWAYNEMale40-49TEMP1:17:18+28:34
174249997STIPPSJACQUESMale40-49TEMP1:17:19+28:35
1752010671KOTZEERIKAFemale40-49TEMP1:17:22+28:38
1761410286DU TOITJOEMale50-59TEMP1:17:22+28:38
1772110907PERRYSAMANTHAFemale40-49TEMP1:17:25+28:41
178229708VAN RENSBURGCAROLFemale40-49TEMP1:17:26+28:42
17919780ANDREWSPAULMale70+ATLHAR1:17:33+28:49
1802310498EHLERSNELLIEFemale40-49AMSAC1:17:34+28:50
181199704FORTUINRITAFemale50-59TEMP1:17:38+28:54
1822011406BARRONKATRYNFemale50-59TEMP1:17:39+28:55
1833511807JORSCORNELIUSMaleOpenTEMP1:17:45+29:01
1842510685VAN ROOIJANMale40-49TEMP1:17:48+29:04
1852110629RACHELCUPIDOFemale50-59TEMP1:17:51+29:07
1862210633MICHAUXJOHANNAFemale50-59TEMP1:17:56+29:12
187159818KROUKAMPTERENCEMale50-59TEMP1:17:57+29:13
1883210276MAJIEDTJENETTAFemaleOpenRWFLWP1:17:58+29:14
1891611037THOMASNORBETMale50-59TEMP1:17:58+29:14
1903310139SMIDTKARINFemaleOpenTEMP1:18:02+29:18
1912610638RHODENEVILLEJOHNMale40-49CSWP1:18:03+29:19
1921712157WILSONTUMMIEMale50-59TEMP1:18:07+29:23
1932311587MEYERCATHRINEFemale50-59WELLING1:18:08+29:24
1942410596RABIEILZEFemale50-59TEMP1:18:10+29:26
195259966JOUBERTELIZABETHFemale50-59TEMP1:18:12+29:28
1963411941SCHROEDERBASEINEFemaleOpenTEMP1:18:14+29:30
1973610912WILLCOCKLEEMaleOpenTEMP1:18:14+29:30
1983711076HENDRICKSBENJAMINMaleOpenTEMP1:18:15+29:31
1992412158WILSONESTELLEFemale40-49TEMP1:18:15+29:31
2003511071HENDRICKSMAGDALENEFemaleOpenTEMP1:18:15+29:31
2013810863FREDERICKSANTHONYMaleOpenTEMP1:18:26+29:42
2022611631MENTOORCHARLOTTEFemale50-59VELOCITY1:18:30+29:46
2032511867JACOBSMELDAFemale40-49TEMP1:18:34+29:50
2042710887TINDERHOLMHEINMale40-49TEMP1:18:46+30:02
2053611866ABELSRAQUELEFemaleOpenTEMP1:18:46+30:02
2062711390REEDJOANFemale50-59TEMP1:18:47+30:03
2073710469JANSE VAN RENSBURGSHARONFemaleOpenTEMP1:18:55+30:11
2082610560LEETZCOLLEENFemale40-49TEMP1:18:58+30:14
2093910541JOHNSONDENVERMaleOpenTEMP1:18:59+30:15
2101410129OCKHUIZENJASONMaleJuniorsTEMP1:19:00+30:16
2112711335BOOYSENPATRICKFemale40-49TEMP1:19:01+30:17
2123810064ELZETTEBEZUIDENHOUTFemaleOpenTEMP1:19:02+30:18
213289802ZIMRIJOHANMale40-49TEMP1:19:03+30:19
2141810192KRIELJOHNMale50-59TEMP1:19:06+30:22
215159789MOSTERTTIHANMaleJuniorsTEMP1:19:06+30:22
216399941ROSSOUW-MOSSSUZANNE-FRANCOISEFemaleOpenTEMP1:19:07+30:23
217409942MOSSCRAIGMaleOpenTEMP1:19:07+30:23
218911707VAN DE VENTERMARLUFemaleJuniorsTEMP1:19:08+30:24
219199689HILLTREVORMale50-59TEMP1:19:09+30:25
2202011392ABRAHAMSMELVYNMale50-59TEMP1:19:16+30:32
2214110499DE WITTJOHANMaleOpenAMSAC1:19:24+30:40
2222810497JANSEN VAN VUURENSONJAFemale40-49AMSAC1:19:24+30:40
2232111344JULIESERNESTMale50-59TEMP1:19:27+30:43
2244010138JANSE VAN RENSBURGARNEFemaleOpenTEMP1:19:30+30:46
225711579JURIESMARTINUSMale60+TEMP1:19:33+30:49
226299810WILLIAMSTHOMASMale40-49TEMP1:19:33+30:49
2272810767IZAKSFELICITYFemale50-59TEMP1:19:34+30:50
2284210674HUGOHENDRIKMaleOpenTEMP1:19:34+30:50
2293011829BOWERSBENMale40-49TEMP1:19:35+30:51
2302211728SEFOORHENRYMale50-59TEMP1:19:38+30:54
2312911172DAMONINGRIDFemale50-59TEMP1:19:39+30:55
2323011501OCTOBEREVAFemale50-59TEMP1:19:42+30:58
2332910485PETERSENROSELINEFemale40-49TEMP1:19:42+30:58
2343111114VAN REENENDALENEFemale50-59TYGER1:19:44+31:00
2353211227FRANSLUCIAFemale50-59TEMP1:19:45+31:01
23629993MENTJIESBRAINMale70+NBMCEDEN1:19:46+31:02
2373010721HARRISONGRETHAFemale40-49TEMP1:19:47+31:03
2383111578ISAACSLENAFemale40-49TEMP1:19:47+31:03
2393210718SALIDAWILMAFemale40-49SPARTAN1:19:47+31:03
240111674SIEBRITSBETSIEFemale70+TEMP1:19:52+31:08
2413310029ABRAHAMSSONJAFemale40-49TEMP1:19:52+31:08
242109792VAN WYKLOUNAFemaleJuniorsTEMP1:19:53+31:09
243119790VAN WYKANRIFemaleJuniorsTEMP1:19:53+31:09
2441610563LEETZAIDANMaleJuniorsTEMP1:19:54+31:10
2452310450MALANKEVINMale50-59TEMP1:20:06+31:22
2463110339FREDERICKSROBERTMale40-49TEMP1:20:09+31:25
2474311847CLOETEDAVIDMaleOpenTEMP1:20:10+31:26
2483411038TEMPIESROCHELLEFemale40-49CSBOL1:20:10+31:26
249419791FENWICKMICHELLEFemaleOpenTEMP1:20:11+31:27
2504211569CLAASENKARINFemaleOpenTEMP1:20:12+31:28
2511211570OLIVIERDEVONIAQUEFemaleJuniorsTEMP1:20:13+31:29
2524310046BRITZ-LOURENSMARISSAFemaleOpenTEMP1:20:15+31:31
253339524BURGERRONELFemale50-59TEMP1:20:16+31:32
2543210386VAN DER BERGDEONMale40-49TEMP1:20:17+31:33
2551710003WIGGILLRUANMaleJuniorsTEMP1:20:17+31:33
2564410840SMITFRANCOMaleOpenTEMP1:20:21+31:37
257359522GAYBBADALENEFemale40-49TEMP1:20:22+31:38
2583411531SMUTSANNAFemale50-59TEMP1:20:22+31:38
2594410839SMITSIMONEFemaleOpenTEMP1:20:22+31:38
2603610842PRINSROLENEFemale40-49TEMP1:20:22+31:38
261459568ASIAJO-ANNEFemaleOpenTEMP1:20:23+31:39
2621310673ROSSOUWPETROFemaleJuniorsSWART1:20:24+31:40
2634610116ROSSOUWTANJAFemaleOpenTEMP1:20:28+31:44
264479678DU TOITMELINDIEFemaleOpenTEMP1:20:29+31:45
265459677JANSE VAN RENSBURGJOHANNESMaleOpenTEMP1:20:29+31:45
2664811069KOOPMANJANINEFemaleOpenTEMP1:20:30+31:46
2672410553PAULSENANDRE'Male50-59TEMP1:20:32+31:48
2683710556PAULSENELIZEFemale40-49TEMP1:20:32+31:48
2693511156KILIANJANETTEFemale50-59TEMP1:20:32+31:48
2704910987VAN SCHOORMARSHALLINEFemaleOpenTEMP1:20:32+31:48
2715010889LAMBRECHTSCHRISTINEFemaleOpenTEMP1:20:33+31:49
272519866ABRAHAMSANGELENEFemaleOpenTEMP1:20:34+31:50
2733810130DAVIDSWENDYFemale40-49TEMP1:20:37+31:53
27499940DU PLESSISSUZANNEFemale60+PAARL1:20:38+31:54
2755210117SAVILLECRYSTALFemaleOpenTEMP1:20:38+31:54
2765311332HARELGAARNLEGANFemaleOpenTEMP1:20:39+31:55
277369819KROUKAMPGLENDAFemale50-59ATLHAR1:20:41+31:57
2783910176WALESMARLENEFemale40-49TEMP1:20:41+31:57
2793310041DONOVANSOLOMONSMale40-49TEMP1:20:42+31:58
2804011075BAATJIESLEONIEFemale40-49TEMP1:20:42+31:58
2811810099BROOKSJEANMaleJuniorsTEMP1:20:43+31:59
2823711337SAULSJESSICAFemale50-59TEMP1:20:44+32:00
2833410694ELSMARTINUSMale40-49WORC1:20:45+32:01
284259850SMITSARELMale50-59TEMP1:20:45+32:01
2854111670SWARTSSANDRAFemale40-49TEMP1:20:49+32:05
2864210659ADAMSMERYLFemale40-49TEMP1:20:49+32:05
2874310098BROOKSTERESAFemale40-49TEMP1:20:49+32:05
2883810967HENDRICKSTHERESAFemale50-59TEMP1:20:55+32:11
2894610503VAN DYKPAUL-HENDRIKMaleOpenTEMP1:21:00+32:16
290269868HORNPHILLIPUSMale50-59TEMP1:21:00+32:16
2911410505HANEKOMMARTINETTEFemaleJuniorsTEMP1:21:03+32:19
2924411465MAYMAUREENFemale40-49TEMP1:21:04+32:20
293399688HILLBEULAHFemale50-59ELSIES1:21:05+32:21
2945410696DAVIDSSHARONFemaleOpenWORC1:21:05+32:21
2951010986CLAASSENMERCIAFemale60+TEMP1:21:07+32:23
2964010274JUMATEURIKAFemale50-59TEMP1:21:08+32:24
297811411WEHRRAYMONDMale60+TEMP1:21:10+32:26
2984511317WILLIAMSCATHLIAMSFemale40-49TEMP1:21:10+32:26
2992711215HENDRICKSTREVORMale50-59TEMP1:21:10+32:26
3004110706KANNEMEYERCHARMAINEFemale50-59TEMP1:21:10+32:26
3011111628MALGASMONAFemale60+VELOCITY1:21:13+32:29
3025510545MARITZYOLANDIFemaleOpenTEMP1:21:16+32:32
303569983SAMPSONMICHELLEFemaleOpenSANLAMC1:21:17+32:33
3042810861SMITHERMANMale50-59SANLAMC1:21:17+32:33
305310178DU PREEZANDREMale70+TEMP1:21:20+32:36
3061910013COMBRINSGRANUIZZEMaleJuniorsTEMP1:21:21+32:37
3075710546HERSELMANNELANIFemaleOpenTEMP1:21:21+32:37
3084612025ADRIAANSEDIANEFemale40-49TEMP1:21:22+32:38
3095812026KRIELLEANAFemaleOpenTEMP1:21:23+32:39
310479711BRETHERTONGENEVIEVEFemale40-49TEMP1:21:26+32:42
3114210534LAKAYISABELFemale50-59TEMP1:21:26+32:42
3124810940CRONJEKARINFemale40-49TEMP1:21:27+32:43
3135910966HENDRICKSWENDYFemaleOpenTEMP1:21:29+32:45
3146010939SWARTBIANCEFemaleOpenTEMP1:21:29+32:45
3156110819PETERSENNICOLEFemaleOpenTEMP1:21:39+32:55
3166210134DU TOITVICTORIAFemaleOpenTEMP1:21:40+32:56
3174311000JONESKOBIEFemale50-59TEMP1:21:41+32:57
318209882JOHANNESRONINMaleJuniorsTEMP1:21:41+32:57
319449883DARIESELEANOREFemale50-59RAVENS1:21:42+32:58
3204910267PIETERSENELAINEFemale40-49TEMP1:21:42+32:58
3212911358BRAINERSJOSEPHMale50-59TEMP1:21:43+32:59
3225010018DIEDERICKSLISBEFemale40-49TEMP1:21:44+33:00
3235110140KOTZEHELENAFemale40-49TEMP1:21:45+33:01
3245210409THERONELZAFemale40-49TEMP1:21:45+33:01
3253011363ANDERSONPAULMale50-59BRACKEN1:21:46+33:02
3265311364HARTHSANDRAFemale40-49BRACKEN1:21:46+33:02
327549864ROBERTSJEANNEFemale40-49TEMP1:21:47+33:03
3283511307KESTOORCHARLESMale40-49TEMP1:21:50+33:06
3295511365VAN DER MERWEMATHINAFemale40-49BRACKEN1:21:52+33:08
330639814DANGWALUCYFemaleOpenTEMP1:21:52+33:08
3315610466JAMESKARENFemale40-49TEMP1:21:52+33:08
3326411127JANSENJENENFemaleOpenTEMP1:21:57+33:13
3336511397STOFFELSRENEFemaleOpenTEMP1:21:57+33:13
334219879HANSENLANCEMaleJuniorsSAPSWP1:21:58+33:14
3356610348DAMONJUNAEFemaleOpenTEMP1:22:00+33:16
3365710327BURGERMINETTEFemale40-49TEMP1:22:07+33:23
3375810616NEWMANREGEMYFemale40-49TEMP1:22:09+33:25
3384511974ALEXANDERHESTERFemale50-59TEMP1:22:10+33:26
3393611973IFFLEYEDWINMale40-49TEMP1:22:10+33:26
340469658VAN NIEKERKLUZETTEFemale50-59TEMP1:22:10+33:26
341129618DE JAGERRENEFemale60+TEMP1:22:10+33:26
342139768SMITERNAFemale60+TEMP1:22:11+33:27
3434710204SLAWERSFERNANDOMaleOpenTEMP1:22:11+33:27
3445911486GEORGEELSA-MARIEFemale40-49TEMP1:22:17+33:33
345479832STEENKAMPRITAFemale50-59TEMP1:22:27+33:43
3463710908ADAMSKEVINMale40-49CSBOL1:22:29+33:45
3471510423BEZUIDENHOUTERICAFemaleJuniorsTEMP1:22:29+33:45
3482210439VAN SANTENJURIANMaleJuniorsTEMP1:22:34+33:50
349239599STEYNJORDAANMaleJuniorsTEMP1:22:35+33:51
3506711706ISAACSKAYLINFemaleOpenTEMP1:22:35+33:51
3512410438VAN SANTENPIERREMaleJuniorsTEMP1:22:35+33:51
3521410961MYBURGHSURINAFemale60+ALCATEL1:22:36+33:52
3533811021SAMPSONSTANLEYMale40-49TEMP1:22:36+33:52
354399944JULIESDEONMale40-49TEMP1:22:42+33:58
3551610779BARRONJAMIEFemaleJuniorsTEMP1:22:46+34:02
3561710385MEULDIJKJEMMAFemaleJuniorsTEMP1:22:47+34:03
3571810383MEULDIJKMARISKAFemaleJuniorsTEMP1:22:47+34:03
3584811370RIBIKAJIMARARETHFemale50-59TEMP1:22:56+34:12
359159541FAULANNAMARIEFemale60+TEMP1:22:59+34:15
3602510063SWARTBJORNMaleJuniorsTEMP1:23:01+34:17
3614910322STEENKAMPYVONNEFemale50-59TEMP1:23:03+34:19
362509583NICOLLSANDYFemale50-59TEMP1:23:05+34:21
3634011864MANUELISMAILMale40-49TEMP1:23:05+34:21
3644810726KOTZEKEVINMaleOpenTEMP1:23:06+34:22
365609956GOLIATHCELESTINEFemale40-49TEMP1:23:07+34:23
3666110256BURTONCARMINFemale40-49FIT2000WP1:23:08+34:24
3674910597ARENDSEMARENTIUSMaleOpenRWFLWP1:23:10+34:26
3685011010DEMASDEWALDMaleOpenTEMP1:23:13+34:29
369689621FOURIECINDYFemaleOpenTEMP1:23:17+34:33
3701610212AFRICALAURAFemale60+TELKWP1:23:18+34:34
3715111960MARTHINUSCELUINMaleOpenTEMP1:23:19+34:35
372319964PARSONSMARKMale50-59TEMP1:23:20+34:36
373519733MICHAELSANDELINEFemale50-59TEMP1:23:20+34:36
3743211273PETERSENKENNETHMale50-59TEMP1:23:21+34:37
3756211655LAKERCHRINAFemale40-49PAARL1:23:22+34:38
3765211671NEFFJOANIEFemale50-59PAARL1:23:22+34:38
3776310551JEFTHACARMENFemale40-49TEMP1:23:22+34:38
378699620KRUGERCHARLENEFemaleOpenTEMP1:23:25+34:41
3794111452KLAASEGERTRUIDAMale40-49TEMP1:23:27+34:43
380539844MUGGELSVERONICAFemale50-59TEMP1:23:28+34:44
3815411453MARTINNORIEFemale50-59TEMP1:23:28+34:44
3825211012DEMASDILLANMaleOpenTEMP1:23:28+34:44
3833310255CUBITTIMMale50-59FIT2000WP1:23:30+34:46
384539630VAN DE VYVERERICMaleOpenTEMP1:23:32+34:48
3855511714PHEIFFERHAZELFemale50-59TEMP1:23:33+34:49
3863410740ARENDSESELVINMale50-59DWARS1:23:33+34:49
387709631VAN DE VYVERDELANIFemaleOpenTEMP1:23:33+34:49
3885411402WHYTEKEENANMaleOpenTEMP1:23:34+34:50
3896411480LOUWELIZABETH-ANNFemale40-49RCSGUGS1:23:36+34:52
3906511293SCHERMANNADENE-LOUISEFemale40-49TEMP1:23:38+34:54
3916610892DU TOITMARIAFemale40-49TEMP1:23:40+34:56
3927110128HENDRICKSCHANTALFemaleOpenTEMP1:23:42+34:58
3937210555CUPIDOSTERNAFemaleOpenTEMP1:23:43+34:59
394559669GATESJOHANMaleOpenTEMP1:23:43+34:59
395739670GATESKARINFemaleOpenTEMP1:23:43+34:59
3966710536CARELSECORDELIAFemale40-49TEMP1:23:49+35:05
397749574SIMONSELEONIDAFemaleOpenPAARL1:23:49+35:05
3985610595LAMBRECHTSDANIELMaleOpenTEMP1:23:52+35:08
3997511296MARAISCHARMEFemaleOpenTEMP1:23:53+35:09
4005611534SWARTJOANFemale50-59TEMP1:23:53+35:09
4013511497ROSENBERGCARELMale50-59TEMP1:23:54+35:10
4027611031COLLINSBONITAFemaleOpenTEMP1:23:58+35:14
4037710219ENGELBRECHTROSIEFemaleOpenTEMP1:23:58+35:14
4046811280SASSMARIAFemale40-49TEMP1:23:59+35:15
4055711895ENGLEDOLEMARYFemale50-59TEMP1:24:00+35:16
406789622DANIELSPRICILLAFemaleOpenTEMP1:24:00+35:16
4077911336NIEUWOUDTISAKFemaleOpenTEMP1:24:00+35:16
4086910567MARAISKARINFemale40-49TEMP1:24:00+35:16
4091710325ARENDSEHERMINAFemale60+VELOCITY1:24:01+35:17
4107011315WILLIAMSMARIEFemale40-49TEMP1:24:02+35:18
4115810573GERSTNERJEANETTEFemale50-59TEMP1:24:03+35:19
4121911676DANIELSKELIAHFemaleJuniorsTEMP1:24:03+35:19
4134211675DANIELSJAKOBUSMale40-49TEMP1:24:04+35:20
4147110614FREDERICKSYOLANDAFemale40-49EDGE1:24:04+35:20
415729906WEDDERSPOONJOHANELLEFemale40-49TEMP1:24:06+35:22
416439907WEDDERSPOONDEONMale40-49TEMP1:24:07+35:23
4175911680BROWNDESIREEFemale50-59RAVENS1:24:07+35:23
4186010107SWIEGELAARMARLENEFemale50-59TEMP1:24:08+35:24
4193610108SWIEGELAARCHARLESMale50-59TEMP1:24:08+35:24
4205710788VAN DER BERGAMEERMaleOpenTEMP1:24:09+35:25
4215810826ADONISEDWINMaleOpenTEMP1:24:10+35:26
4228011423NELLJOHANDRIFemaleOpenTEMP1:24:10+35:26
4236111052LE ROUXCHARISSEFemale50-59TEMP1:24:11+35:27
424629994NELLLIZZIEFemale50-59TEMP1:24:11+35:27
4251811447COETZEESIEBERTFemale60+TEMP1:24:12+35:28
4262611708JOSEPHSZANDREYMaleJuniorsTEMP1:24:13+35:29
4277311771DU PLESSISCHARMAINEFemale40-49TEMP1:24:13+35:29
4286310080EKARDMAGDALENEFemale50-59TEMP1:24:14+35:30
4293711154MACHENTDERICKMale50-59TEMP1:24:19+35:35
4303811148WATSONFELICITYMale50-59TEMP1:24:19+35:35
4316410432NEROSANNAFemale50-59TEMP1:24:21+35:37
432819939MEIRINGLIEZELFemaleOpenTEMP1:24:21+35:37
4331910729STOCKIGTLENETTEFemale60+TEMP1:24:22+35:38
4347411475CLAASENANNETTEFemale40-49TEMP1:24:31+35:47
4358210825CLOETEMARIEFemaleOpenTEMP1:24:31+35:47
4365911104PETERSENRALPHMaleOpenTEMP1:24:33+35:49
4374411171BOTHMANROBERTMale40-49TEMP1:24:35+35:51
438399589ENGELBRECHTCHARLESMale50-59TEMP1:24:37+35:53
4396010341SIMONSEANDREWMaleOpenPAARL1:24:38+35:54
4404510405SAMUELSCHRISTOMale40-49TEMP1:24:41+35:57
4418310759CHARLESCHRISTALENEFemaleOpenTEMP1:24:41+35:57
4428411285GOOSENROZANNEFemaleOpenTEMP1:24:42+35:58
4432010531PENDERISHANNIEFemale60+TEMP1:24:43+35:59
4447510529VAN SCHOORESTIEFemale40-49TEMP1:24:43+35:59
4458510235SPERRINSAMANTHAFemaleOpenTEMP1:24:43+35:59
4466510612SMITHELIZEFemale50-59EERSTE1:24:44+36:00
447910237DU BOISVIVIANMale60+TEMP1:24:44+36:00
4482010177BOSMANMAREFemaleJuniorsTEMP1:24:45+36:01
4498610372GERBERMELANAFemaleOpenTEMP1:24:46+36:02
4507610375MEULDIJKBELINDAFemale40-49TEMP1:24:46+36:02
4514610607LOBESEMONDEMale40-49TEMP1:24:47+36:03
4526110463BROWNJODYMaleOpenTEMP1:24:48+36:04
4537711865PRETORIUSOLGAFemale40-49TEMP1:24:50+36:06
4544710507HANEKOMJOHANESMale40-49TEMP1:24:52+36:08
455879758ALBERTYNMARLENEFemaleOpenTEMP1:24:52+36:08
4566610408MALGASJESSICAFemale50-59ATLHAR1:24:52+36:08
4578810462BROWNMELISSAFemaleOpenTEMP1:24:57+36:13
458629695NOTHNAGELJOHANMaleOpenPAARL1:24:59+36:15
459409552ANDREWSSTEVEMale50-59TEMP1:25:00+36:16
4606710603KOTZECHARMAINEFemale50-59TEMP1:25:01+36:17
4617810837ORTONKARIENFemale40-49TEMP1:25:07+36:23
462899504ENGELBRECHTRENEFemaleOpenTEMP1:25:09+36:25
4634810838ORTONCHARLESMale40-49TEMP1:25:11+36:27
464909587MAREEYOLANDEFemaleOpenTEMP1:25:11+36:27
465919588RABIEANELFemaleOpenTEMP1:25:12+36:28
4667911454JACOBSJUNEFemale40-49TEMP1:25:14+36:30
4676310857DIEDERICKSLLEWELLYNMaleOpenTEMP1:25:14+36:30
468809505ENGELBRECHTRENIELDAFemale40-49TEMP1:25:16+36:32
469929924MADIKANESHADYFemaleOpenTEMP1:25:17+36:33
470410894PRETORIUSFANIEMale70+STRAND1:25:19+36:35
471939915FOURIECARLIENFemaleOpenTEMP1:25:24+36:40
4729412152DAMONSLEEFemaleOpenTEMP1:25:33+36:49
473959919ROSSOUWHILANEFemaleOpenTEMP1:25:34+36:50
4742111096WILLIAMSTERSIAFemaleJuniorsTEMP1:25:35+36:51
4754110644SIMONSRANDALLMale50-59TEMP1:25:37+36:53
4764910059STRYDOMDAKKYMale40-49TEMP1:25:43+36:59
4776811041DE RUITERSNAOLAFemale50-59TEMP1:25:44+37:00
4786910771CAMERONCAROLINEFemale50-59TEMP1:25:44+37:00
4797011236FORDCAROLFemale50-59TEMP1:25:45+37:01
4806411726BERGMANGARTHMaleOpenTEMP1:25:45+37:01
4819610459ALLIESMONIQUEFemaleOpenCSBOL1:25:47+37:03
4825010552JEPTHADEONMale40-49TEMP1:25:49+37:05
4831011056JORDAANBERENDMale60+TEMP1:25:50+37:06
4845110412BOTHAMICHAELMale40-49TEMP1:25:50+37:06
4854210600NOBLEPHILLIPMale50-59TEMP1:25:52+37:08
486979870THERONLIEZLE-MARIFemaleOpenTEMP1:25:53+37:09
4879810750SCOTTELIZABETHFemaleOpenTEMP1:25:55+37:11
4882111054JORDAANAMELIAFemale60+TEMP1:25:55+37:11
4898110669TSOLOYVETTEFemale40-49TEMP1:25:56+37:12
4905210668TSOLONATHANIELMale40-49TEMP1:25:56+37:12
4919911521BENNETTLEANAFemaleOpenTEMP1:25:58+37:14
4924311641ANNASROLFMale50-59TEMP1:26:00+37:16
4935311775STEVENSJAPIEMale40-49TEMP1:26:02+37:18
4944411824METTLERABRAHAMMale50-59TEMP1:26:06+37:22
495211267KLAASENDORAFemale70+TEMP1:26:10+37:26
49610010455CAROLOUSBERENICEFemaleOpenTEMP1:26:11+37:27
4971019799EVERTSRIANAFemaleOpenTYGER1:26:14+37:30
4982211494DREYERKEZIAFemaleJuniorsTYGER1:26:16+37:32
4992211194HERLOFF-PETERSENLINDAFemale60+TEMP1:26:16+37:32
5002311258PATIENCEBRONWYNFemaleJuniorsTYGER1:26:16+37:32
5015410330NORTJEDANIELMale40-49BRACKEN1:26:18+37:34
50210210058TERBLANSLIZELLEFemaleOpenTEMP1:26:18+37:34
5038210749KOTZEANNA-MARIEFemale40-49TEMP1:26:20+37:36
5046510364MORGANCHRISTOPHERMaleOpenTEMP1:26:21+37:37
5051039824ROELOSELIZELFemaleOpenTYGER1:26:22+37:38
5068311320KARELSEAUDREYFemale40-49TEMP1:26:22+37:38
5076610315DANIELSRODNEYMaleOpenTEMP1:26:22+37:38
5087111020SIMONSMILLICENTFemale50-59TEMP1:26:23+37:39
5091049989ADAMSGERALDINEFemaleOpenTEMP1:26:23+37:39
510729951SNYMANRONELFemale50-59TEMP1:26:26+37:42
511239619LOURENSETHNEYFemale60+TEMP1:26:27+37:43
512739902WAGENERALICEFemale50-59TEMP1:26:27+37:43
5138410028VAN NIEKERKMARIAFemale40-49TEMP1:26:30+37:46
5148511719PRINSJOSEPHINEFemale40-49TEMP1:26:30+37:46
5157410765MAYSMELINDAFemale50-59TEMP1:26:35+37:51
51610510324FORTUINELAINEFemaleOpenVELOCITY1:26:37+37:53
5177511377BOGENHAGENRHONAFemale50-59TEMP1:26:40+37:56
5187610844KLOPPERELMARIFemale50-59TEMP1:26:42+37:58
5198611833BOWERSYOLANDAFemale40-49TEMP1:26:46+38:02
5208711814PETERSENNORMAFemale40-49TEMP1:26:47+38:03
52110610336YOUNGCHRISMARIEFemaleOpenTEMP1:26:48+38:04
5228810259ENGLEDOELYNETTEFemale40-49TEMP1:26:49+38:05
5238910559STEVENSCOLLEENFemale40-49TEMP1:26:50+38:06
5249010798DEPORTADREFemale40-49TEMP1:26:50+38:06
5255511309STOFFELSJANNIEMale40-49TEMP1:26:53+38:09
52610711611ROGERSSUAHIEMAFemaleOpenTEMP1:26:54+38:10
52710810337DORFLINGROZAANFemaleOpenTEMP1:26:56+38:12
5289110228LESCHELIZABETHFemale40-49TEMP1:26:56+38:12
5299210269SOLOMONSRAOELFemale40-49TEMP1:27:02+38:18
5301099891DOBBELSTEIJNJULIANFemaleOpenTEMP1:27:05+38:21
531779890DOBBELSTEIJNJUDYFemale50-59TEMP1:27:05+38:21
5327810809WHITTLESELVIRAFemale50-59TEMP1:27:05+38:21
5337911604ADAMSIRENEFemale50-59TEMP1:27:07+38:23
5348011235FORDELIZABETHFemale50-59TEMP1:27:07+38:23
5359311345CARSTENSELMAFemale40-49TEMP1:27:08+38:24
5362410796VAN DER MERWEANRIFemaleJuniorsTEMP1:27:08+38:24
5379410795VAN DER MERWEHESTERFemale40-49TEMP1:27:09+38:25
5388111832SALMONSSARAHFemale50-59TEMP1:27:09+38:25
5398210630ELLISBEVERLYFemale50-59TEMP1:27:10+38:26
5409511226RUDOLPHMARLENEFemale40-49TEMP1:27:10+38:26
5412410514VAN ZYLREGINAFemale60+TEMP1:27:11+38:27
5421110494VAN ZYLJOHANMale60+TEMP1:27:11+38:27
543969594ENGELBRECHTANTONIAFemale40-49TEMP1:27:12+38:28
54411010714SCHWARTZCHARLENEFemaleOpenTEMP1:27:13+38:29
54511110416KOTZETANIAFemaleOpenTEMP1:27:14+38:30
54611210609ODENDAALANKAFemaleOpenTEMP1:27:15+38:31
5479710390VERMEULENALETFemale40-49TEMP1:27:15+38:31
5485610535CARELSEBASILMale40-49TEMP1:27:15+38:31
5498311690JOHANNESCATHLEENFemale50-59TEMP1:27:16+38:32
5508410963THEARTVALERYFemale50-59WORC1:27:17+38:33
55111310764CLOETECARDINFemaleOpenTEMP1:27:17+38:33
55211410741BUHRISABELFemaleOpenTEMP1:27:18+38:34
55311510954STEVEJOLENEFemaleOpenSANLAMC1:27:18+38:34
554579545FORTUINJONAMMale40-49TEMP1:27:18+38:34
555511145LANGENHOVENGEORGEMale70+TEMP1:27:19+38:35
5569810489PICKLETITIAFemale40-49TEMP1:27:20+38:36
5579910888ANTONY MORRISSIMOLENEFemale40-49TEMP1:27:21+38:37
558259813CHRISTINAVANFemale60+TEMP1:27:22+38:38
5595811100PIETERSENRAY-DEANMale40-49TEMP1:27:22+38:38
5606711595VAN SCHALKWYKDEANMaleOpenTEMP1:27:23+38:39
5618510598NOBLEESMEFemale50-59TEMP1:27:24+38:40
56211610335NORTIERSU-MARIFemaleOpenTEMP1:27:24+38:40
5636810675SAMPSONJOHANMaleOpenTEMP1:27:26+38:42
5641009756TWENTYMAN-JONESSUZANNEFemale40-49TEMP1:27:29+38:45
5655911125ABRAHAMSPETERMale40-49TEMP1:27:30+38:46
5668610123THORPESHARONFemale50-59TEMP1:27:30+38:46
56710110039MOSTERTTANIAFemale40-49TEMP1:27:31+38:47
5688710323SOLOMONANGELINEFemale50-59TEMP1:27:32+38:48
56911710334KOTZEJUAN-MARIEFemaleOpenTEMP1:27:37+38:53
5704510391JONESCASSIUSMale50-59TEMP1:27:37+38:53
5712710980ABRAHAMSROBINMaleJuniorsTEMP1:27:41+38:57
5728810299PRETORIUSANRIAFemale50-59TEMP1:27:43+38:59
573699771BOBERGASHLEYMaleOpenTEMP1:27:44+39:00
5741189577ROUXWILLEMIENFemaleOpenTEMP1:27:45+39:01
57511910605STEENKAMPROZANNEFemaleOpenTEMP1:27:47+39:03
5761209878TURNERMIKHAULAFemaleOpenTEMP1:27:48+39:04
5771210786VAN DER BERGMOEGSIENMale60+TEMP1:27:53+39:09
5787010972DIRKSLANCEMaleOpenTEMP1:27:54+39:10
5791219849DOWELL-ELLISMARISSEFemaleOpenTEMP1:27:54+39:10
5802810971NEWMANLYLEMaleJuniorsTEMP1:27:55+39:11
5818911128WILLIAMSPRICILLAFemale50-59TEMP1:27:55+39:11
58212210380VERMEULEBJU-MAEFemaleOpenTEMP1:27:56+39:12
5834610377VERMEULENPIETERMale50-59BOLAND1:27:56+39:12
5841029650TURNERJENNIFERFemale40-49TEMP1:28:02+39:18
585719569ASIAMARLONMaleOpenTEMP1:28:03+39:19
58610311542JONESMARILYNFemale40-49TEMP1:28:04+39:20
5874711204MAYGEORGEMale50-59TEMP1:28:05+39:21
58812310161ROSSPRUDENCEFemaleOpenTEMP1:28:05+39:21
5892510113SCHREUDERHANNEKEFemaleJuniorsTEMP1:28:05+39:21
5901249918DEYSELBIANCAFemaleOpenTEMP1:28:06+39:22
5911259700JOUBERTMARTINEFemaleOpenTEMP1:28:06+39:22
59212611642BAMMELICIAFemaleOpenTEMP1:28:07+39:23
59310410350DAMONTHELMAFemale40-49TEMP1:28:10+39:26
59410511383VAN DER SPUYDIANNAFemale40-49TEMP1:28:10+39:26
59510611032CONRADBEVERLEYFemale40-49MAMRE1:28:11+39:27
5962610702LAUSBERGISABELFemaleJuniorsTEMP1:28:12+39:28
59712711700DETTEEDWINAFemaleOpenTEMP1:28:13+39:29
5987211028WILSONMITCHLEYMaleOpenTEMP1:28:13+39:29
5999010527DE BEERAMANDAFemale50-59TEMP1:28:16+39:32
6004810528DE BEERCOENRAADMale50-59TEMP1:28:17+39:33
60110711374SCHOORNAOMIFemale40-49TEMP1:28:17+39:33
60210810672HANLIEROSSOUWFemale40-49SWART1:28:18+39:34
60310910451VAN DER WESTHUYZENJOLIZEFemale40-49TEMP1:28:19+39:35
6047311174TROMPIZAAKMaleOpenTEMP1:28:19+39:35
6051310444KOTZEJOHANNMale60+TEMP1:28:20+39:36
6069110453KOTZEWILMAFemale50-59TEMP1:28:21+39:37
6079210104OOSTHUYSENLEONIEFemale50-59SANLAMC1:28:22+39:38
6082711451SWANEPOELNADIAFemaleJuniorsTEMP1:28:23+39:39
60911010278ALEXANDERLEE-ANNFemale40-49TEMP1:28:24+39:40
61011110313BENJAMINTHERESAFemale40-49TEMP1:28:24+39:40
6119310370ISMAILNAZLIFemale50-59TEMP1:28:25+39:41
6126011092MCLARENMICHAELMale40-49TEMP1:28:28+39:44
61311211091HENDRICKSLOLITAFemale40-49TEMP1:28:28+39:44
61412810465HANEKOMISABELFemaleOpenNEDBOL1:28:30+39:46
6154910820PETERSENBONITAMale50-59TEMP1:28:30+39:46
6167410217OLIVERJERMAINEMaleOpenTEMP1:28:31+39:47
617619702VILJOENDANIEMale40-49TEMP1:28:32+39:48
6186211689LE ROUXDIRKMale40-49TEMP1:28:35+39:51
6199411576OOSTHUIZENCHRISTINAFemale50-59TEMP1:28:35+39:51
62012910252VAN COLLERCARLAFemaleOpenTEMP1:28:36+39:52
621959624BURGERMARIEFemale50-59TEMP1:28:36+39:52
62213010069CHAMBERSADELEFemaleOpenTEMP1:28:37+39:53
6239610019VAN BREDAEMILYFemale50-59TEMP1:28:38+39:54
6245010624ELLISLOFTIEMale50-59TEMP1:28:38+39:54
6259710594LAMBRECHTSLYNETTEFemale50-59TEMP1:28:38+39:54
6267511598MALAMBAVUYANIMaleOpenTEMP1:28:39+39:55
6276310248DOUGLASJOHNNYMale40-49TEMP1:28:40+39:56
6286410074CHAMBERSRICHARDMale40-49TEMP1:28:44+40:00
6291319945CURLEWISCARMENFemaleOpenTEMP1:28:45+40:01
63013210115DAVIDSELIZNAFemaleOpenTEMP1:28:45+40:01
63113311545ISAACNADINEFemaleOpenTEMP1:28:45+40:01
6327611201CLOETEGRANTMaleOpenTEMP1:28:48+40:04
6335110251SOLOMONGODFREYMale50-59TEMP1:28:48+40:04
6346510311FREDERICKSWILLIAMMale40-49TEMP1:28:48+40:04
63511310055ENGELBRECHTLUCINDAFemale40-49TEMP1:28:48+40:04
63611411047JAPHETSSARAHFemale40-49TEMP1:28:50+40:06
63711510792DOMANWILMIEFemale40-49CSBOL1:28:51+40:07
63811610457DEZIVANFemale40-49CSBOL1:28:52+40:08
63911711544FRANTZFLORINDAFemale40-49TEMP1:28:53+40:09
6407711197ARENDSELEONMaleOpenTEMP1:28:54+40:10
64111810784BOOYSENHILDAFemale40-49TEMP1:28:56+40:12
64211910513JAGERSJUDYFemale40-49TEMP1:28:57+40:13
6432610810ARENDSEANNFemale60+TEMP1:28:57+40:13
64413410131APOLLISANWINNFemaleOpenTEMP1:28:59+40:15
64512010346LE ROUXJOANITAFemale40-49TEMP1:28:59+40:15
64613510929ESPINASSELISAFemaleOpenTEMP1:28:59+40:15
647279503VAN DER MERWEMARIANNEFemale60+TEMP1:29:01+40:17
6481369746MCGARVEYTRACEYFemaleOpenTEMP1:29:02+40:18
6495210061HABELGAARNWILFREDMale50-59TEMP1:29:02+40:18
65013710506BOTHAKARAFemaleOpenTEMP1:29:03+40:19
65113811152MATTHEECATHLENFemaleOpenTEMP1:29:05+40:21
6529811505BENJAMINESMERALDAFemale50-59TEMP1:29:05+40:21
6532810443KOTZEELSABEFemale60+TEMP1:29:07+40:23
65413911200CLOESTECELESTEFemaleOpenTEMP1:29:07+40:23
6559911556BARNESCAROLFemale50-59TEMP1:29:08+40:24
6561219671MORGANMELINDAFemale40-49TEMP1:29:09+40:25
657299721FOURIEVALERIEFemale60+TEMP1:29:10+40:26
65810010893CAROLISSENROWINAFemale50-59DWARS1:29:11+40:27
65910111532MARAISSANDRAFemale50-59BRACKEN1:29:14+40:30
6601029513ARNOLDYSMARELDAFemale50-59TEMP1:29:15+40:31
661539635BOTESDAANMale50-59TEMP1:29:16+40:32
6621039634BOTESELZAFemale50-59TEMP1:29:17+40:33
66314010828CLEENWERCKALTEENAFemaleOpenTEMP1:29:17+40:33
6645411192LOFTUSNIELMale50-59TEMP1:29:17+40:33
66514110354LEANEMORGANFemaleOpenTEMP1:29:18+40:34
6665511378BOGENHAGENSAMUELMale50-59TEMP1:29:18+40:34
6677810652WILLIAMSNICOLEENMaleOpenTEMP1:29:21+40:37
668569829LOBERGARYMale50-59TEMP1:29:23+40:39
66914210454MDLADLAMBAASANDAFemaleOpenTEMP1:29:24+40:40
67012211858VAN DER WESTHUZIENNICOLETFemale40-49TEMP1:29:27+40:43
6713011826HUGHESSERENAFemale60+TEMP1:29:29+40:45
67212311080BOTHMANMICHELLEFemale40-49TEMP1:29:30+40:46
6731249614GILMORESUSANFemale40-49BOLAND1:29:32+40:48
67414310876MOSTERTGINAFemaleOpenTEMP1:29:33+40:49
6752811371RIBIKAJIGHITAFemaleJuniorsTEMP1:29:34+40:50
67612510976BODKINAMBERFemale40-49TEMP1:29:36+40:52
67714411890MOSTERTJUNITAFemaleOpenTEMP1:29:36+40:52
6785710141CALITZDIRKMale50-59TEMP1:29:37+40:53
6791269725VAN DER WESTHUYZENLYNETTEFemale40-49METLIFE1:29:38+40:54
680589693PEDROMOGAMMATMale50-59TEMP1:29:40+40:56
6811279692PEDROFOZIAPFemale40-49TEMP1:29:40+40:56
6821459969OLIVERJEANETTEFemaleOpenTEMP1:29:43+40:59
6831469970MESSINAILSEFemaleOpenTEMP1:29:43+40:59
6841479546SOLOMONHELGAFemaleOpenTEMP1:29:44+41:00
68514810475MARONEBLANCHEFemaleOpenTEMP1:29:44+41:00
6866611067FAGODIENABDULMale40-49TEMP1:29:48+41:04
6871289642THERONVERONICAFemale40-49TEMP1:29:48+41:04
688299644THERONDAMIANMaleJuniorsTEMP1:29:48+41:04
68912910770DU TOITMONYAFemale40-49TEMP1:29:49+41:05
69013010774LAMINETTEZELDAFemale40-49TEMP1:29:49+41:05
69113110415BOTHABRENDAFemale40-49TEMP1:29:50+41:06
6927910989ADRIAANSETHERLOMaleOpenTEMP1:29:51+41:07
69310410515FOURIEANNETTEFemale50-59TEMP1:29:51+41:07
6942910516FOURIENERINEFemaleJuniorsTEMP1:29:51+41:07
6951499694SCHULTZKIMFemaleOpenTEMP1:29:51+41:07
6968010312CAMPSONMARCELLOMaleOpenTEMP1:29:51+41:07
697819606FRENETTEESTERMaleOpenTEMP1:29:53+41:09
6981509605RAVAGANANGELAFemaleOpenTEMP1:29:54+41:10
69913211634FORTUINELLENFemale40-49GROOT1:29:57+41:13
7001519952MICHAUXRUMILDAFemaleOpenTEMP1:29:58+41:14
7018210478CORNELIUSANGUSMaleOpenTEMP1:29:59+41:15
7023010650MICHAELSGINOMaleJuniorsTEMP1:30:02+41:18
70313311560HORNSHARONFemale40-49TEMP1:30:02+41:18
70413410433DU PLESSISBEULAHFemale40-49TEMP1:30:04+41:20
70515211555KOTZEESTELLEFemaleOpenTEMP1:30:05+41:21
7066711656WILLEMSEKEVINMale40-49TEMP1:30:05+41:21
7073111546KOTZECRYSTALMaleJuniorsTEMP1:30:06+41:22
7083211163SULLIVANKYLEMaleJuniorsTEMP1:30:07+41:23
70915310757LE ROUXDENNELIZEFemaleOpenTEMP1:30:11+41:27
7101549965VORSTERLORRAINEFemaleOpenTEMP1:30:14+41:30
7115911499WINDOGELDAVIDSMale50-59TEMP1:30:14+41:30
71213511158DAMONSENNAFemale40-49TEMP1:30:14+41:30
71313611673DANIELSJEANETTEFemale40-49TEMP1:30:15+41:31
71410510342OSBORNEMICHELLEFemale50-59TEMP1:30:15+41:31
71569834ROBERTSFREDDYMale70+TEMP1:30:15+41:31
71613710745ANSIEBOUWERFemale40-49TEMP1:30:17+41:33
71715510666BARNARDEDITHAFemaleOpenTEMP1:30:17+41:33
7186810773LANGENHOVENNEILMale40-49TEMP1:30:17+41:33
7191389648VAN DER WESTHUIZENELEANORFemale40-49TEMP1:30:19+41:35
7206010962KLUEJOEMale50-59TEMP1:30:19+41:35
721699647VAN DER WESTHUIZENPIERREMale40-49TEMP1:30:20+41:36
7221399649MCMASTERCAROLFemale40-49TEMP1:30:20+41:36
723339604STEYNLIZELLEMaleJuniorsTEMP1:30:21+41:37
72410610320SHARPEJOANFemale50-59TEMP1:30:21+41:37
72514010321ARENZPAULINAFemale40-49TEMP1:30:21+41:37
726309598STEYNJANAFemaleJuniorsTEMP1:30:21+41:37
7276110720ADAMSMANLEYMale50-59CSBOL1:30:23+41:39
7281569765BURGERELRITHAFemaleOpenTEMP1:30:24+41:40
7291419766BESTERLUZAANFemale40-49TEMP1:30:25+41:41
7301579732BASSONANNALIZEFemaleOpenTEMP1:30:25+41:41
73110711701FORTUNESHIRLEYFemale50-59TEMP1:30:27+41:43
7328310160KOEGELEMBERGMELTMaleOpenTEMP1:30:31+41:47
73315810486HEARNEMARCALYNEFemaleOpenTEMP1:30:33+41:49
73415912172PETERSLUCEENFemaleOpenTEMP1:30:34+41:50
7356211334NIEUWOUDTISAKMale50-59TEMP1:30:35+41:51
7368411959VAN ROOIJOSEPHMaleOpenTEMP1:30:35+41:51
73716011295GOOSENGABRIELLAFemaleOpenTEMP1:30:36+41:52
73816111957VAN ROOIMANDYFemaleOpenTEMP1:30:37+41:53
7398511297DE LANGEFRANCOISMaleOpenTEMP1:30:37+41:53
74010810430SMIDTPEARLFemale50-59TEMP1:30:37+41:53
741319626HOLWILLSUNITAFemale60+TEMP1:30:38+41:54
74216210626KINGCYNTHIAFemaleOpenTEMP1:30:39+41:55
7433410037GEORGEGERTMaleJuniorsTEMP1:30:40+41:56
7446310435BARONDANIELMale50-59NEDBOL1:30:40+41:56
74516310970NEWMANALICIAFemaleOpenTEMP1:30:40+41:56
74616410613SMITHVERNETHAFemaleOpenTEMP1:30:41+41:57
74716511636PLAATJIESMAGDALEENFemaleOpenGROOT1:30:43+41:59
7487010936SWARTMICHAELMale40-49TEMP1:30:43+41:59
74916610882ALLISONMONIQUEFemaleOpenTEMP1:30:44+42:00
75014210832SCHOEMANKARIENFemale40-49TEMP1:30:45+42:01
75116711060APOLLISODILEFemaleOpenEERSTE1:30:48+42:04
752719575SIMONSERUBENMale40-49PAARL1:30:49+42:05
7537210831SCHOEMANJURGENSMale40-49TEMP1:30:51+42:07
75414311592KNIPEDIANEFemale40-49TEMP1:30:52+42:08
7558610738PETERSENMARLONMaleOpenTEMP1:30:54+42:10
7563210763UYSHEATHERFemale60+TEMP1:30:55+42:11
75714410742CLACKETTSANDRAFemale40-49TEMP1:30:55+42:11
75814511051OLIVERPETRONELLAFemale40-49TEMP1:30:57+42:13
7598710428SOLOMONSDONOVANMaleOpenTEMP1:30:58+42:14
76016810803DU TOITMARTELLEFemaleOpenTEMP1:30:58+42:14
76110910744STEYNMAREEFemale50-59TEMP1:30:59+42:15
76211010945PETERSENFELICITYFemale50-59TEMP1:30:59+42:15
76311110723BRINKWILMAFemale50-59TEMP1:31:00+42:16
76411211175DU TOITMARTIEFemale50-59TEMP1:31:02+42:18
76514611126ABRAHAMSSORIETHAFemale40-49TEMP1:31:03+42:19
7666411179MARAISJOHANMale50-59TEMP1:31:03+42:19
76716911594RAVENBIANCAFemaleOpenTEMP1:31:03+42:19
76814710885SWARTBOOISHIREENFemale40-49TEMP1:31:04+42:20
7693310250MARTHINUSMARLENEFemale60+TEMP1:31:04+42:20
77014810483HEARNEBEVERLEYFemale40-49TEMP1:31:04+42:20
7711499953STRYDOMKARENFemale40-49TEMP1:31:05+42:21
77211311613SECKENSVALERIEFemale50-59TEMP1:31:06+42:22
7733110900BASSONMACHEFemaleJuniorsTEMP1:31:07+42:23
77411411347SMITVERITYFemale50-59TEMP1:31:07+42:23
77511510969BRUINERSDIANNEFemale50-59TEMP1:31:08+42:24
77617010060SWARTDEIDREFemaleOpenTEMP1:31:09+42:25
77717110948LAWRENCERENEFemaleOpenTEMP1:31:09+42:25
77815010708KOTZECHARLENEFemale40-49TEMP1:31:11+42:27
77917211740NYMANALETHEAFemaleOpenTEMP1:31:11+42:27
78017311751VOSKUILODETTEFemaleOpenTEMP1:31:12+42:28
781739722TAITMARIOMale40-49TEMP1:31:12+42:28
78211611644MOUTONDENISEFemale50-59WELLING1:31:12+42:28
7836510968BRUINERSDEONMale50-59TEMP1:31:20+42:36
78417411040MALHERBECORNELIFemaleOpenTEMP1:31:22+42:38
7851759734FOURIEALMARIFemaleOpenTEMP1:31:23+42:39
7861769735BESTERMICHELLEFemaleOpenTEMP1:31:23+42:39
7871779736LOWLINDIFemaleOpenTEMP1:31:24+42:40
7881789867MARTINNICOLENEFemaleOpenTEMP1:31:24+42:40
78911711945HARRISPAMELAFemale50-59TEMP1:31:24+42:40
7903410426HASSIEMFAHEEMAFemale60+TEMP1:31:25+42:41
79117911744SAMUELSMANDYFemaleOpenTEMP1:31:25+42:41
79218010663PERSENTCELINAFemaleOpenTEMP1:31:26+42:42
79315110397SAULSHENNALINEFemale40-49TEMP1:31:27+42:43
79411810978OCTOBERJOSEPHINEFemale50-59TEMP1:31:29+42:45
79518111457PHILIPUSPHILINSIAFemaleOpenTEMP1:31:29+42:45
79611910402PANDAYLAMEEZFemale50-59TEMP1:31:29+42:45
79715211403WHYTERENICEFemale40-49TEMP1:31:29+42:45
798359737VAN ZYLMARIETAFemale60+TEMP1:31:30+42:46
7996610981CRONJETHEOMale50-59TEMP1:31:33+42:49
80015311485LEIBRANDYEMILYFemale40-49TEMP1:31:34+42:50
8011549831VAN REENENRUTHFemale40-49TEMP1:31:35+42:51
80212011739CAROLUSKATYFemale50-59TEMP1:31:35+42:51
80312110211SAMUELSISOBELFemale50-59TELKWP1:31:36+42:52
80415511897ABRAHAMSAUDREYFemale40-49DWARS1:31:36+42:52
8058811375KAKAZAAVUYILEMaleOpenTEMP1:31:37+42:53
8066710002WILLEMSEDEONMale50-59TEMP1:31:38+42:54
8071229973VIGUSDENISEFemale50-59RWFLWP1:31:39+42:55
80812310983CRONJERENEFemale50-59TEMP1:31:40+42:56
80918211350VAN DER MERWECHANTELLEFemaleOpenPAARL1:31:41+42:57
81012410670VAN DER MERWERONELFemale50-59PAARL1:31:41+42:57
8113210951JANSE VAN RENSBURGMAKAYLAFemaleJuniorsTEMP1:31:42+42:58
81218310952CONRADIEANNA-MARIEFemaleOpenTEMP1:31:43+42:59
81312510487OLIPHANTMERLEFemale50-59TEMP1:31:43+42:59
81418410481JACOBSMARIOHETTEFemaleOpenTEMP1:31:43+42:59
81518510895CLAASENSHEULENEFemaleOpenTEMP1:31:43+42:59
8163510854COETZEERYANMaleJuniorsTEMP1:31:44+43:00
81718611515WALTERSMIRIAMFemaleOpenTEMP1:31:45+43:01
8181879820NIEMANDANNE-MARIEFemaleOpenTEMP1:31:45+43:01
8198911159FAUSTINONADINEMaleOpenTEMP1:31:47+43:03
8207411135DAMASIOROBERTMale40-49TEMP1:31:48+43:04
82118811303LOCHNERCARLO-MARIFemaleOpenTEMP1:31:48+43:04
82218911355ROBERTSONLINDIEFemaleOpenTEMP1:31:49+43:05
8233610778MARTHINUSEUGANMaleJuniorsTEMP1:31:49+43:05
8241269943JULIESELMARIEFemale50-59TEMP1:31:51+43:07
82515611277KLAASENCHEBELINEFemale40-49TEMP1:31:52+43:08
8261909974HARMSEROUGUANFemaleOpenTEMP1:31:53+43:09
8271579972HARMSEROUVEEFemale40-49TEMP1:31:53+43:09
8287511357KRUGELCHARLMale40-49TEMP1:31:53+43:09
82919111318JOUBERTNICOLEFemaleOpenTEMP1:31:56+43:12
83019210226WINNAARRONELFemaleOpenTEMP1:31:59+43:15
83115811008DEMASSHIRLEYFemale40-49TEMP1:31:59+43:15
832369909CAMBYPATFemale60+TEMP1:32:00+43:16
8333710606DEANECOLLEENFemale60+TEMP1:32:01+43:17
834389655LAINGALIDAFemale60+TEMP1:32:01+43:17
835149654LAINGCHRISTOMale60+TEMP1:32:02+43:18
8361939653LAINGTANIAFemaleOpenTEMP1:32:02+43:18
83712710985ADRIAANSESAIDYFemale50-59TEMP1:32:04+43:20
83815911971ADAMSRENEFemale40-49TEMP1:32:04+43:20
83919410984ADRIAANSEMARLYNEFemaleOpenTEMP1:32:04+43:20
840159825ZAACKSKENNETHMale60+TEMP1:32:05+43:21
84116010105ADONISVERONICAFemale40-49MAMRE1:32:05+43:21
84216111970SALIEFATIMAFemale40-49TEMP1:32:05+43:21
8437610790JANSENMICHAELMale40-49TEMP1:32:06+43:22
8447710941KADERCLINTONMale40-49FOREST1:32:07+43:23
8451611133FAROFRANSMale60+TEMP1:32:07+43:23
84612810231GREEFFHILDAFemale50-59TEMP1:32:08+43:24
84716210724GREEFFISOBELFemale40-49TEMP1:32:08+43:24
84819511509HERBERTMISHKAHFemaleOpenTEMP1:32:09+43:25
84916310357STEVENSCLAUDINEFemale40-49TEMP1:32:09+43:25
8509010473LOUWBRENDINMaleOpenTEMP1:32:09+43:25
85119611502DOLLIESHAMEEGAFemaleOpenTEMP1:32:10+43:26
85212911468MULLERROSINAFemale50-59TEMP1:32:10+43:26
8531649590LOUWJEANETTEFemale40-49TEMP1:32:10+43:26
85416511741NYMANANELIZEFemale40-49TEMP1:32:11+43:27
855919712LYENCHARLMaleOpenTEMP1:32:11+43:27
85619711450MATTHYSEJESMNINAFemaleOpenTEMP1:32:11+43:27
85713011624CUPIDORINAFemale50-59TEMP1:32:12+43:28
8581989713LOURENSMANDYFemaleOpenSAPSWP1:32:12+43:28
859711632MAYJOHNMale70+SPARTAN1:32:12+43:28
86013111376KAKAZAPINKISEFemale50-59TEMP1:32:13+43:29
8613911633MAYSANNAFemale60+SPARTAN1:32:15+43:31
862789888PETERSENWENDALMale40-49TEMP1:32:15+43:31
86316611702VAN DER ROSSESTELLEFemale40-49TEMP1:32:15+43:31
8649212178VAN DER VENTERFLORIAMaleOpenTEMP1:32:17+43:33
86513210328ZINGUJULIAFemale50-59TEMP1:32:17+43:33
866339696KEMPCHANNTELFemaleJuniorsTEMP1:32:17+43:33
86716710682GORDONSHEILAFemale40-49TEMP1:32:18+43:34
86816811473FISHERESMERALDAFemale40-49TEMP1:32:18+43:34
86919911886LEUKESJOANFemaleOpenTEMP1:32:18+43:34
87020010855GILDENHUYSELOISEFemaleOpenTEMP1:32:22+43:38
87113311681TRUSKYLILIANFemale50-59TEMP1:32:24+43:40
87216910853BOTHMALUCILLEFemale40-49TEMP1:32:24+43:40
8731349536FOOTMANVANESSAFemale50-59TEMP1:32:25+43:41
87413510852UYSRITAFemale50-59TEMP1:32:26+43:42
875939538WELLENJONIFFMaleOpenTEMP1:32:26+43:42
8767910283BOOISJACOBUSMale40-49TEMP1:32:26+43:42
8772019537WELLENZELIAFemaleOpenTEMP1:32:26+43:42
87817010817BOOISMAGRIETAFemale40-49TEMP1:32:26+43:42
87913611013BOYESMAGRIETAFemale50-59TEMP1:32:27+43:43
88020210542LE ROUXLEZAHNFemaleOpenTEMP1:32:29+43:45
88120310979DIEDERICKSHELGAFemaleOpenTEMP1:32:30+43:46
8826810921MOOSAGEORGEMale50-59TEMP1:32:32+43:48
8831719535LAMPRECHTRIANAFemale40-49TEMP1:32:32+43:48
8848011554KLEINSMITHDONMale40-49TEMP1:32:33+43:49
88513711435ADAMSLEAFemale50-59TEMP1:32:34+43:50
88617210148HENNINGSANDRA-LYNNEFemale40-49TEMP1:32:34+43:50
88717310277JOSEPHJOLITAFemale40-49TEMP1:32:34+43:50
8888111621CAROLISSENLUKEMale40-49TEMP1:32:35+43:51
88920410657COMINSROSFemaleOpenTEMP1:32:35+43:51
890699724MOUTONJEANMale50-59TEMP1:32:36+43:52
89120511764DAMONSMARIANNEFemaleOpenTEMP1:32:37+43:53
892949803PETERSENRIANAMaleOpenTEMP1:32:37+43:53
893959804PHILLIPSGRAEMEMaleOpenTEMP1:32:37+43:53
8949611129LAUBSCHERDANEELMaleOpenTEMP1:32:38+43:54
8951749601WENTZELRENEEFemale40-49TEMP1:32:40+43:56
896979600VAN DER MERWERUPERTMaleOpenTEMP1:32:41+43:57
89713810030VAN STADENRACHELFemale50-59RAVENS1:32:42+43:58
8981759723TOLKENBESSIEFemale40-49TEMP1:32:42+43:58
8992069869KEMPELOISEFemaleOpenTEMP1:32:43+43:59
9001399556NELLELIZABETHFemale50-59TEMP1:32:44+44:00
9012079559NELLMARIETTEFemaleOpenTEMP1:32:44+44:00
90220811767WENTZELLUCRECIAFemaleOpenTEMP1:32:45+44:01
90317611763STOFFELSCRISTINAFemale40-49TEMP1:32:45+44:01
90420911132HUYSAMENLYDIAFemaleOpenTEMP1:32:45+44:01
90517711103VAN HEERDENCAROLINEFemale40-49TEMP1:32:48+44:04
90617811112PETERSENGWENDOLINEFemale40-49TEMP1:32:48+44:04
90717911102SASSJOHANNAFemale40-49TEMP1:32:49+44:05
90821012154WILLIAMSRUTHFemaleOpenTEMP1:32:50+44:06
9097010006VAN ROOIJACOBUSMale50-59TEMP1:32:50+44:06
91018010281MOSESMICHELLEFemale40-49TEMP1:32:50+44:06
91118110282ROBINSONLIZETTEFemale40-49TEMP1:32:50+44:06
91221111637MAARMANJENNIFERFemaleOpenGROOT1:32:51+44:07
91314011436WILLEMSELYNNFemale50-59TEMP1:32:53+44:09
91414110736PETERSENROSIAFemale50-59TEMP1:32:55+44:11
91518211747SMITHBONITAFemale40-49TEMP1:32:55+44:11
91621211393CHIBBAMELINAFemaleOpenTEMP1:32:56+44:12
9173411756SMITHLEIGHFemaleJuniorsTEMP1:32:56+44:12
9181429718LOMBARDWASHIELAFemale50-59TEMP1:32:56+44:12
9199810005VAN ROOIETHANMaleOpenTEMP1:32:56+44:12
92021311716PIETERSENZOELFIEYAFemaleOpenTEMP1:32:57+44:13
9211439507CUPIDORACHIEDAFemale50-59TEMP1:32:58+44:14
922179508HOFFMANNICKYMale60+TEMP1:32:58+44:14
9239911803JAFTHASEDMUNICEMaleOpenTEMP1:32:59+44:15
92421412021SWANEPOELJANINEFemaleOpenTEMP1:33:00+44:16
9258210755OLDEWAGEDANNYMale40-49TEMP1:33:00+44:16
92618310902DE VILLIERSTRIENIEFemale40-49TEMP1:33:00+44:16
92714410368KAFAARMOERIEDAFemale50-59TEMP1:33:01+44:17
92818410500HANEKOMNATALIEFemale40-49TEMP1:33:01+44:17
92918510508HANEKOMMARIEFemale40-49TEMP1:33:01+44:17
93018610903HANEKOMEBETHFemale40-49TEMP1:33:02+44:18
93118710753SMITHCHRISTELFemale40-49TEMP1:33:02+44:18
93221510356STEVENSYOLANDEFemaleOpenTEMP1:33:02+44:18
93314511623SEPTEMBERALMAFemale50-59TEMP1:33:02+44:18
93418811625CHARLESRONELLEFemale40-49TEMP1:33:04+44:20
9352169738CILLIERSDENISEFemaleOpenTEMP1:33:05+44:21
93614610305CAROLUSZENOBIAFemale50-59TEMP1:33:05+44:21
93721711733JOHANNESBRONWINFemaleOpenTEMP1:33:06+44:22
93821810530HERAUDPETRAFemaleOpenTEMP1:33:06+44:22
9392199739COETZEESIMONEFemaleOpenTEMP1:33:07+44:23
9402209726THEARTSUNELFemaleOpenTEMP1:33:08+44:24
94118910095VAN WYKHESTERFemale40-49TEMP1:33:08+44:24
9424010163JOHNSONELIZABETHFemale60+TEMP1:33:09+44:25
943719520DU PREEZANDREMale50-59TEMP1:33:11+44:27
944729954STOFFBERGDEONMale50-59TEMP1:33:11+44:27
94514711372SCHRIKKERADELAIDEFemale50-59TEMP1:33:12+44:28
94622110035CUPIDOKIM-LEEFemaleOpenTEMP1:33:13+44:29
94719011472BRINKHUISASTRIDFemale40-49TEMP1:33:14+44:30
94819111466MAYMACHELLEFemale40-49TEMP1:33:14+44:30
9493511672ADAMSELEANOR-MAEFemaleJuniorsTEMP1:33:14+44:30
95022210716RADEMEYERMONICAFemaleOpenTEMP1:33:15+44:31
95119211046SEBASTIANSALOMEFemale40-49TEMP1:33:16+44:32
9527310851ADAMSZAIDMale50-59ODRAAI1:33:17+44:33
9531810974SONIMOGAMATMale60+TEMP1:33:17+44:33
9541939857ROBSONHENRIETTEFemale40-49TEMP1:33:18+44:34
9554110932BOSHOFFMARIETTEFemale60+TEMP1:33:18+44:34
95619411580JEPHTAS-CAILLORNAFemale40-49TEMP1:33:18+44:34
9571959591JOSEPHSPATRICIAFemale40-49TEMP1:33:18+44:34
958839856ROBSONPIERREMale40-49TEMP1:33:18+44:34
9592239539SNYMANLAURENFemaleOpenTEMP1:33:20+44:36
960100